Location: Little Chesterford
(52.0500°N, 0.1833°E)
Time: 13:14:01
(UTC+00:00)

NOSS 3-1 (C) - Pass Details

Date: 26 September 2023
Orbit: 672 x 1534 km, 63.4° (Epoch: 03 November)

Event Time Altitude Azimuth Distance (km) Brightness Sun altitude
Rises 18:46:16 0° 174° (S) 3,079 6.0 -9.6°
Reaches altitude 10° 18:49:01 10° 157° (SSE) 2,236 5.1 -10.0°
Maximum altitude 18:52:40 20° 110° (ESE) 1,764 4.3 -10.6°
Drops below altitude 10° 18:56:44 10° 65° (ENE) 2,540 5.2 -11.2°
Sets 19:00:05 0° 50° (NE) 3,644 6.1 -11.7°
